Tracking 30995 objects as of 5-Jul-2025
HD Live streaming from Space Station
objects crossing your sky now

STARLINK-3508

Track STARLINK-3508 now!
10-day predictions
STARLINK-3508 is classified as:


NORAD ID: 51862
Int'l Code: 2022-022L
Perigee: 546.0 km
Apogee: 547.8 km
Inclination: 53.2 °
Period: 95.4 minutes
Semi major axis: 6917 km
RCS: Unknown
Launch date: March 3, 2022
Source: United States (US)
Launch site: AIR FORCE EASTERN TEST RANGE (AFETR)
Your satellite tracking list
COSMOS 252 DEB
Track 1 satellite(s)




NASA's NSSDC Master Catalog

Two Line Element Set (TLE):
1 51862U 22022L   25186.58309855  .00000645  00000-0  58612-4 0  9996
2 51862  53.2184  38.4245 0001323  88.9628 271.1516 15.08838616185860
Source of the keplerian elements: AFSPC